Location: Northern Prairie Star Party
(53.2167°N, 112.5333°W)
Time: 18:26:51
(UTC-06:00)

Amateur Radio Satellites - All Passes

Search period start: 30 April 2016 17:56
Search period end: 01 May 2016 17:56
Location: Northern Prairie Star Party, 53.2167°N, 112.5333°W

Satellite Date Start Highest point End Downlink Frequencies (MHz)
Time Altitude Azimuth
DOVE 4 30 Apr 17:57:34 18:00:30 15° 50° (NE) 18:03:28 437.250
NOAA 15 30 Apr 17:58:49 18:03:59 60° 68° (ENE) 18:09:13 137.62
MOZHAYETS 4 30 Apr 17:58:56 18:03:31 80° 287° (WNW) 18:08:05
BRITE-PL 30 Apr 17:59:56 18:04:27 38° 63° (ENE) 18:09:21 437.365/2234.400
ITUPSAT 1 30 Apr 18:00:18 18:03:08 16° 308° (NW) 18:05:57 437.325
CUBESAT XI-V 30 Apr 18:00:40 18:04:00 19° 89° (E) 18:07:20 437.345
M-CUBED/EXP-1 PRIME 30 Apr 18:02:19 18:06:32 33° 57° (ENE) 18:10:41 437.505
SO-50 30 Apr 18:03:31 18:07:08 22° 245° (WSW) 18:10:38 436.795
O/OREOS (USA 219) 30 Apr 18:08:42 18:12:41 28° 315° (NW) 18:16:40 437.305
SWISSCUBE 30 Apr 18:11:47 18:13:44 12° 312° (NW) 18:15:40 437.505
PCSat 30 Apr 18:13:26 18:18:53 79° 310° (NW) 18:24:22 145.827
KKS-1 30 Apr 18:14:23 18:18:39 42° 294° (WNW) 18:22:52 437.445
DANDE 30 Apr 18:16:43 18:19:21 24° 299° (WNW) 18:22:34 436.750
AO-85 30 Apr 18:20:47 18:25:02 23° 353° (N) 18:29:06 145.980
AUBIESAT-1 30 Apr 18:23:03 18:27:25 41° 59° (ENE) 18:31:40 437.475
LilacSat-2 30 Apr 18:27:36 18:31:25 55° 71° (ENE) 18:35:14 437.200
HO-68 30 Apr 18:29:50 18:35:16 24° 45° (NE) 18:40:42 435.675
STARS 30 Apr 18:37:51 18:42:05 44° 293° (WNW) 18:46:16 437.465
NOAA 18 30 Apr 18:39:28 18:44:59 76° 254° (WSW) 18:50:32 137.9125
Cosmos 2491 30 Apr 18:44:35 18:53:29 78° 76° (ENE) 19:02:18 435.465 / 435.565
CUTE-I 30 Apr 18:47:47 18:53:08 86° 254° (WSW) 18:58:30 437.470
HORYU 2 30 Apr 18:48:37 18:50:48 13° 273° (W) 18:53:00 437.375
CINEMA 3 30 Apr 18:58:39 19:01:53 17° 54° (NE) 19:05:06 145.822/145.860
YUBILEINY 30 Apr 19:05:36 19:13:21 38° 83° (E) 19:21:05 435.215
SEEDS 30 Apr 19:08:42 19:10:22 12° 53° (NE) 19:12:03 437.485
COMPASS 1 30 Apr 19:17:10 19:18:21 11° 52° (NE) 19:19:31 437.405
GOMX 1 30 Apr 19:23:48 19:28:53 88° 253° (WSW) 19:34:19 467.674
Cubesat XI-IV 30 Apr 19:31:56 19:36:58 41° 262° (W) 19:42:02 437.490
DOVE 4 30 Apr 19:32:09 19:37:14 65° 70° (ENE) 19:42:31 437.250
M-CUBED/EXP-1 PRIME 30 Apr 19:36:24 19:40:58 46° 255° (WSW) 19:45:27 437.505
CANX-2 30 Apr 19:37:00 19:40:36 28° 63° (ENE) 19:44:12 2200.000
CUBESAT XI-V 30 Apr 19:37:13 19:41:53 70° 289° (WNW) 19:46:34 437.345
MOZHAYETS 4 30 Apr 19:37:24 19:40:00 15° 307° (NW) 19:42:36
BRITE-PL 30 Apr 19:38:22 19:42:57 40° 265° (W) 19:47:55 437.365/2234.400
NOAA 15 30 Apr 19:39:47 19:44:10 26° 268° (W) 19:48:36 137.62
AAUSAT CUBESAT 2 30 Apr 19:48:41 19:51:20 17° 57° (ENE) 19:53:59 437.432
STRAND 1 30 Apr 19:56:12 20:00:20 24° 91° (E) 20:04:28 437.568
AUBIESAT-1 30 Apr 19:57:39 20:01:55 35° 258° (WSW) 20:06:08 437.475
FUNcube-1 30 Apr 19:57:50 19:58:35 10° 50° (NE) 19:59:21 145.935
PCSat 30 Apr 19:58:27 20:03:06 28° 334° (NNW) 20:07:46 145.827
BEESAT 3 30 Apr 20:00:13 20:03:39 29° 121° (ESE) 20:07:08 437.485
UWE-3 30 Apr 20:00:20 20:03:03 16° 55° (NE) 20:05:45 435.000/436.395/437.385
CUBEBUG 2 30 Apr 20:01:46 20:05:15 21° 58° (ENE) 20:08:42 437.445
AO-85 30 Apr 20:02:37 20:07:03 27° 18° (NNE) 20:11:12 145.980
BEESAT 2 30 Apr 20:03:21 20:06:23 21° 117° (ESE) 20:09:26 435.950
LilacSat-2 30 Apr 20:03:22 20:06:04 18° 270° (W) 20:08:45 437.200
CUTE 1.7 + AOD 2 30 Apr 20:09:42 20:13:45 47° 69° (ENE) 20:17:49 437.475
HO-68 30 Apr 20:14:53 20:22:02 77° 68° (ENE) 20:29:13 435.675
Cosmos 2504 30 Apr 20:17:42 20:23:17 25° 80° (E) 20:28:50 435.465 / 435.565
NOAA 18 30 Apr 20:23:34 20:26:36 15° 275° (W) 20:29:38 137.9125
CUTE-I 30 Apr 20:30:45 20:34:00 16° 274° (W) 20:37:15 437.470
PRISM 30 Apr 20:31:25 20:32:08 10° 85° (E) 20:32:52 437.425
CINEMA 3 30 Apr 20:33:17 20:38:19 81° 74° (ENE) 20:43:21 145.822/145.860
ZACube-1 30 Apr 20:35:40 20:39:03 21° 59° (ENE) 20:42:23 437.345
SEEDS 30 Apr 20:41:13 20:45:22 72° 72° (ENE) 20:49:33 437.485
Cosmos 2491 30 Apr 20:42:10 20:49:33 31° 281° (W) 20:56:52 435.465 / 435.565
COMPASS 1 30 Apr 20:49:02 20:53:08 64° 72° (ENE) 20:57:15 437.405
RS-15 30 Apr 21:00:21 21:06:27 16° 92° (E) 21:12:41 29.354- 29.394
YUBILEINY 30 Apr 21:01:02 21:09:43 66° 287° (WNW) 21:18:25 435.215
GOMX 1 30 Apr 21:04:35 21:07:49 17° 276° (W) 21:11:10 467.674
DOVE 4 30 Apr 21:11:14 21:15:23 24° 271° (W) 21:19:40 437.250
CANX-2 30 Apr 21:12:21 21:16:21 41° 263° (W) 21:20:22 2200.000
CUBESAT XI-V 30 Apr 21:16:06 21:18:30 14° 308° (NW) 21:20:54 437.345
AIST 2 30 Apr 21:17:45 21:18:59 11° 110° (ESE) 21:20:13 435.215
DELFI C3 30 Apr 21:20:42 21:24:03 27° 64° (ENE) 21:27:25 145.870
Oscar 11 30 Apr 21:21:31 21:25:43 52° 69° (ENE) 21:29:55 145.826/435.025
AAUSAT CUBESAT 2 30 Apr 21:22:15 21:26:21 75° 257° (WSW) 21:30:30 437.432
FUNcube-1 30 Apr 21:29:32 21:33:56 53° 70° (ENE) 21:38:16 145.935
UWE-3 30 Apr 21:34:14 21:38:54 83° 73° (ENE) 21:43:29 435.000/436.395/437.385
STRAND 1 30 Apr 21:34:53 21:39:56 62° 291° (WNW) 21:44:58 437.568
CUBEBUG 2 30 Apr 21:36:42 21:41:27 72° 258° (WSW) 21:46:08 437.445
BEESAT 3 30 Apr 21:37:22 21:41:13 49° 321° (NW) 21:45:07 437.485
BEESAT 2 30 Apr 21:39:54 21:43:53 67° 317° (NW) 21:47:54 435.950
AO-85 30 Apr 21:43:21 21:48:25 68° 42° (NE) 21:53:02 145.980
PCSat 30 Apr 21:44:26 21:48:16 19° 360° (N) 21:52:06 145.827
CUTE 1.7 + AOD 2 30 Apr 21:46:27 21:49:51 23° 268° (W) 21:53:15 437.475
HUMSAT D 30 Apr 21:58:45 22:02:32 33° 65° (ENE) 22:06:17 437.325/437.525
PRISM 30 Apr 22:04:01 22:08:12 76° 104° (ESE) 22:12:23 437.425
HO-68 30 Apr 22:04:29 22:10:29 28° 269° (W) 22:16:31 435.675
Cosmos 2504 30 Apr 22:08:38 22:15:53 79° 282° (WNW) 22:23:07 435.465 / 435.565
ZACube-1 30 Apr 22:10:27 22:14:58 66° 258° (WSW) 22:19:25 437.345
CINEMA 3 30 Apr 22:12:37 22:16:04 18° 273° (W) 22:19:31 145.822/145.860
SEEDS 30 Apr 22:19:02 22:21:35 16° 272° (W) 22:24:08 437.485
VELOX 1 30 Apr 22:24:24 22:26:52 15° 53° (NE) 22:29:22 145.980
COMPASS 1 30 Apr 22:26:24 22:29:09 17° 271° (W) 22:31:53 437.405
DX 1 30 Apr 22:29:20 22:31:48 15° 53° (NE) 22:34:16 434.975-435.025
ANTELSAT 30 Apr 22:33:40 22:34:44 11° 83° (E) 22:35:48 437.575/2403.000
UKube-1 30 Apr 22:40:00 22:42:31 15° 54° (NE) 22:45:04 .
AIST 2 30 Apr 22:52:35 22:56:41 67° 130° (SE) 23:00:50 435.215
AISAT 30 Apr 22:54:40 22:58:19 25° 60° (ENE) 23:02:00 437.250
DELFI C3 30 Apr 22:55:10 22:58:50 37° 263° (W) 23:02:33 145.870
Oscar 11 30 Apr 22:58:46 23:02:09 22° 269° (W) 23:05:33 145.826/435.025
YUBILEINY 30 Apr 23:02:21 23:08:34 21° 313° (NW) 23:14:50 435.215
ESTCUBE 1 30 Apr 23:03:28 23:07:32 35° 64° (ENE) 23:11:38 437.505/2401.250
RS-15 30 Apr 23:04:57 23:15:55 57° 118° (ESE) 23:27:29 29.354- 29.394
FUNcube-1 30 Apr 23:06:52 23:10:28 23° 268° (W) 23:14:03 145.935
UWE-3 30 Apr 23:13:08 23:15:57 16° 273° (W) 23:18:44 435.000/436.395/437.385
SPROUT 30 Apr 23:13:54 23:16:35 16° 56° (NE) 23:19:17 437.525
O/OREOS (USA 219) 30 Apr 23:14:34 23:17:07 15° 32° (NNE) 23:19:40 437.305
50 SAT 30 Apr 23:14:54 23:18:11 32° 66° (ENE) 23:21:28 437.505
STRAND 1 30 Apr 23:15:36 23:18:12 14° 312° (NW) 23:20:48 437.568
BEESAT 3 30 Apr 23:16:55 23:19:47 19° 344° (NNW) 23:22:40 437.485
CUBEBUG 2 30 Apr 23:17:12 23:18:53 12° 276° (W) 23:20:34 437.445
BEESAT 2 30 Apr 23:19:18 23:22:25 21° 339° (NNW) 23:25:35 435.950
AO-85 30 Apr 23:24:27 23:28:31 26° 244° (WSW) 23:32:16 145.980
UNISAT 6 30 Apr 23:25:47 23:29:44 32° 95° (E) 23:33:35 437.425
PCSat 30 Apr 23:28:48 23:33:27 27° 26° (NNE) 23:38:04 145.827
HUMSAT D 30 Apr 23:34:18 23:38:10 34° 264° (W) 23:42:00 437.325/437.525
CUBEBUG 1 30 Apr 23:37:07 23:41:22 50° 69° (ENE) 23:45:40 437.445
PRISM 30 Apr 23:40:20 23:43:03 17° 304° (NW) 23:45:48 437.425
NANOSAT C BR1 30 Apr 23:41:18 23:42:16 11° 84° (E) 23:43:13 145.865
TIGRISAT 30 Apr 23:43:59 23:48:12 43° 98° (E) 23:52:18 435.000
TISAT 1 30 Apr 23:56:38 23:59:03 15° 54° (NE) 00:01:29 437.305
VELOX 1 30 Apr 23:58:15 00:02:41 80° 73° (ENE) 00:07:10 145.980
DX 1 01 May 00:02:58 00:07:20 82° 73° (ENE) 00:11:46 434.975-435.025
Cosmos 2504 01 May 00:05:21 00:10:36 21° 307° (NW) 00:15:53 435.465 / 435.565
ANTELSAT 01 May 00:07:53 00:12:19 76° 104° (ESE) 00:16:37 437.575/2403.000
UKube-1 01 May 00:13:37 00:17:58 87° 71° (ENE) 00:22:20 .
QB50P2 01 May 00:29:49 00:33:40 32° 96° (E) 00:37:29 145.880/145.840
AISAT 01 May 00:30:13 00:34:34 52° 260° (W) 00:38:58 437.250
AIST 2 01 May 00:31:49 00:35:31 30° 331° (NNW) 00:39:14 435.215
POLYITAN 1 01 May 00:31:57 00:35:49 32° 96° (E) 00:39:37 437.675
DUCHIFAT 1 01 May 00:32:39 00:36:24 30° 95° (E) 00:40:07 145.980
Cosmos 2499 01 May 00:32:57 00:36:32 15° 72° (ENE) 00:40:08 435.465 / 435.565
SWISSCUBE 01 May 00:33:18 00:34:49 11° 47° (NE) 00:36:20 437.505
POPSAT HIP 1 01 May 00:35:07 00:39:02 34° 96° (E) 00:42:54 437.405
QB50P1 01 May 00:38:33 00:42:31 36° 97° (E) 00:46:27 145.935-145.965
ESTCUBE 1 01 May 00:40:15 00:44:21 35° 264° (W) 00:48:30 437.505/2401.250
SPROUT 01 May 00:47:40 00:52:00 86° 255° (WSW) 00:56:22 437.525
50 SAT 01 May 00:48:54 00:52:02 26° 265° (W) 00:55:11 437.505
GONETS M04 01 May 00:49:13 00:57:12 40° 84° (E) 01:05:10
O/OREOS (USA 219) 01 May 00:53:07 00:57:36 53° 54° (NE) 01:02:02 437.305
BEESAT 3 01 May 00:56:19 00:58:52 16° 8° (N) 01:01:24 437.485
CUSAT 1 01 May 00:56:47 01:01:26 20° 54° (NE) 01:06:42 437.405
BEESAT 2 01 May 00:59:06 01:01:37 16° 3° (N) 01:04:08 435.950
UNISAT 6 01 May 01:02:28 01:06:32 37° 295° (WNW) 01:10:30 437.425
BEESAT 01 May 01:04:47 01:07:55 18° 53° (NE) 01:11:03 436.000
PCSat 01 May 01:12:11 01:17:40 78° 49° (NE) 01:23:07 145.827
CUBEBUG 1 01 May 01:14:23 01:17:56 24° 268° (W) 01:21:32 437.445
NANOSAT C BR1 01 May 01:14:30 01:18:47 76° 104° (ESE) 01:23:01 145.865
RS-15 01 May 01:16:47 01:28:21 68° 326° (NW) 01:40:33 29.354- 29.394
DANDE 01 May 01:20:24 01:23:24 14° 53° (NE) 01:26:44 436.750
TIGRISAT 01 May 01:21:01 01:24:45 28° 298° (WNW) 01:28:25 435.000
AIST 1 01 May 01:22:30 01:26:39 48° 94° (E) 01:30:52
BUGSAT 1 01 May 01:23:35 01:27:43 48° 99° (E) 01:31:47 437.445
JAS-2 01 May 01:27:41 01:34:10 29° 88° (E) 01:40:46 435.910
TISAT 1 01 May 01:29:50 01:34:06 87° 73° (ENE) 01:38:25 437.305
VELOX 1 01 May 01:37:05 01:39:45 16° 272° (W) 01:42:26 145.980
DX 1 01 May 01:41:39 01:44:09 15° 272° (W) 01:46:39 434.975-435.025
ANTELSAT 01 May 01:45:33 01:48:32 18° 304° (NW) 01:51:29 437.575/2403.000
UKube-1 01 May 01:52:25 01:54:39 14° 273° (W) 01:56:53 .
ITUPSAT 1 01 May 01:56:38 02:01:05 40° 64° (ENE) 02:05:32 437.325
QB50P2 01 May 02:05:37 02:09:31 35° 295° (WNW) 02:13:24 145.880/145.840
SWISSCUBE 01 May 02:07:01 02:11:38 53° 68° (ENE) 02:16:16 437.505
POLYITAN 1 01 May 02:07:46 02:11:39 35° 295° (WNW) 02:15:30 437.675
DUCHIFAT 1 01 May 02:08:16 02:12:12 37° 294° (WNW) 02:16:05 145.980
KKS-1 01 May 02:08:59 02:10:22 11° 49° (NE) 02:11:45 437.445
POPSAT HIP 1 01 May 02:10:59 02:14:50 34° 296° (WNW) 02:18:39 437.405
AIST 2 01 May 02:12:26 02:15:12 17° 355° (N) 02:17:57 435.215
QB50P1 01 May 02:14:29 02:18:16 31° 296° (WNW) 02:22:00 145.935-145.965
Cosmos 2499 01 May 02:21:12 02:28:10 67° 95° (E) 02:35:16 435.465 / 435.565
SPROUT 01 May 02:26:47 02:28:40 12° 275° (W) 02:30:31 437.525
Gurwin Techsat 1B 01 May 02:29:09 02:32:41 18° 87° (E) 02:36:12 435.225
STARS 01 May 02:32:04 02:32:49 10° 48° (NE) 02:33:35 437.465
O/OREOS (USA 219) 01 May 02:33:01 02:36:45 25° 255° (WSW) 02:40:26 437.305
BEESAT 3 01 May 02:34:06 02:37:41 31° 31° (NNE) 02:41:15 437.485
BEESAT 2 01 May 02:37:16 02:40:41 26° 26° (NNE) 02:44:07 435.950
CUSAT 1 01 May 02:38:02 02:44:35 68° 73° (ENE) 02:52:25 437.405
BEESAT 01 May 02:40:19 02:45:05 89° 88° (E) 02:49:54 436.000
GONETS M04 01 May 02:44:55 02:53:42 63° 288° (WNW) 03:02:29
Oscar 19 01 May 02:50:47 02:55:54 51° 100° (E) 03:00:57 437.125/150
NANOSAT C BR1 01 May 02:51:13 02:54:02 17° 304° (WNW) 02:56:50 145.865
PCSat 01 May 02:56:16 03:00:34 24° 250° (WSW) 03:04:50 145.827
BUGSAT 1 01 May 02:59:25 03:02:53 25° 299° (WNW) 03:06:18 437.445
AIST 1 01 May 03:01:01 03:04:33 24° 295° (WNW) 03:08:05
DANDE 01 May 03:01:35 03:07:15 55° 72° (ENE) 03:14:30 436.750
TISAT 1 01 May 03:08:18 03:10:24 13° 273° (W) 03:12:31 437.305
JAS-2 01 May 03:12:16 03:19:54 84° 288° (WNW) 03:27:48 435.910
AO-7 01 May 03:16:16 03:18:56 12° 77° (ENE) 03:21:35 29.400- 29.500
MOZHAYETS 4 01 May 03:30:19 03:34:19 31° 63° (ENE) 03:38:20
RS-15 01 May 03:31:45 03:43:10 49° 358° (N) 03:55:01 29.354- 29.394
ITUPSAT 1 01 May 03:34:40 03:39:00 34° 264° (W) 03:43:21 437.325
KKS-1 01 May 03:41:39 03:46:02 56° 69° (ENE) 03:50:28 437.445
SWISSCUBE 01 May 03:45:46 03:49:44 26° 267° (W) 03:53:42 437.505
AIST 2 01 May 03:51:51 03:55:03 21° 18° (NNE) 03:58:16 435.215
STARS 01 May 04:03:56 04:08:15 52° 68° (ENE) 04:12:35 437.465
ITAMSAT 1 01 May 04:04:49 04:09:47 44° 98° (E) 04:14:43 435.822/435.867
Gurwin Techsat 1B 01 May 04:08:01 04:13:23 88° 288° (WNW) 04:18:42 435.225
BEESAT 3 01 May 04:11:44 04:15:39 57° 231° (SW) 04:19:30 437.485
BEESAT 2 01 May 04:14:58 04:19:00 80° 228° (SW) 04:22:59 435.950
Cosmos 2499 01 May 04:15:45 04:21:56 31° 299° (WNW) 04:28:13 435.465 / 435.565
CUSAT 1 01 May 04:20:35 04:26:29 34° 271° (W) 04:33:15 437.405
BEESAT 01 May 04:20:50 04:23:35 15° 273° (W) 04:26:21 436.000
Oscar 19 01 May 04:30:28 04:35:02 32° 300° (WNW) 04:39:35 437.125/150
DANDE 01 May 04:44:39 04:50:03 37° 267° (W) 04:56:44 436.750
GONETS M04 01 May 04:46:29 04:52:42 20° 315° (NW) 04:58:55
HORYU 2 01 May 04:55:47 04:57:21 12° 85° (E) 04:58:55 437.375
JAS-2 01 May 04:58:00 05:04:04 28° 309° (NW) 05:10:22 435.910
AO-7 01 May 05:05:51 05:13:56 50° 101° (E) 05:21:58 29.400- 29.500
YUBILEINY 01 May 05:06:39 05:13:57 28° 55° (NE) 05:21:12 435.215
MOZHAYETS 4 01 May 05:07:04 05:11:24 42° 262° (W) 05:15:46
CUBESAT XI-V 01 May 05:09:39 05:13:51 36° 64° (ENE) 05:18:05 437.345
KKS-1 01 May 05:19:27 05:22:57 22° 268° (W) 05:26:30 437.445
AIST 2 01 May 05:30:12 05:34:20 59° 41° (NE) 05:38:26 435.215
STARS 01 May 05:41:18 05:44:54 24° 268° (W) 05:48:31 437.465
STRAND 1 01 May 05:42:01 05:44:41 14° 48° (NE) 05:47:22 437.568
ITAMSAT 1 01 May 05:44:30 05:49:12 36° 299° (WNW) 05:53:54 435.822/435.867
RS-15 01 May 05:46:08 05:58:11 64° 30° (NNE) 06:10:29 29.354- 29.394
Gurwin Techsat 1B 01 May 05:48:55 05:52:40 20° 308° (NW) 05:56:25 435.225
BEESAT 2 01 May 05:54:18 05:56:13 13° 248° (WSW) 05:58:06 435.950
Cosmos 2504 01 May 06:00:04 06:04:29 16° 47° (NE) 06:09:01 435.465 / 435.565
Cosmos 2491 01 May 06:00:44 06:06:26 19° 71° (ENE) 06:12:08 435.465 / 435.565
NOAA 15 01 May 06:09:00 06:11:44 14° 85° (E) 06:14:26 137.62
HORYU 2 01 May 06:30:14 06:34:42 78° 105° (ESE) 06:39:07 437.375
JAS-2 01 May 06:46:09 06:46:47 10° 332° (NNW) 06:47:26 435.910
CUBESAT XI-V 01 May 06:47:01 06:51:15 36° 264° (W) 06:55:33 437.345
NOAA 18 01 May 06:55:28 07:00:07 28° 93° (E) 07:04:46 137.9125
AO-7 01 May 06:58:51 07:06:51 54° 303° (WNW) 07:14:51 29.400- 29.500
CUTE-I 01 May 06:58:55 07:03:12 24° 91° (E) 07:07:28 437.470
YUBILEINY 01 May 07:03:18 07:12:04 89° 69° (ENE) 07:20:48 435.215
AIST 2 01 May 07:09:07 07:12:34 25° 241° (WSW) 07:15:58 435.215
STRAND 1 01 May 07:17:56 07:22:58 63° 69° (ENE) 07:28:02 437.568
GOMX 1 01 May 07:19:54 07:24:11 22° 88° (E) 07:28:21 467.674
PRISM 01 May 07:25:34 07:28:28 19° 58° (ENE) 07:31:23 437.425
DOVE 4 01 May 07:26:38 07:29:10 13° 82° (E) 07:31:37 437.250
LilacSat-2 01 May 07:29:15 07:32:48 35° 96° (E) 07:36:19 437.200
BRITE-PL 01 May 07:35:49 07:41:22 51° 98° (E) 07:46:53 437.365/2234.400
Cubesat XI-IV 01 May 07:42:15 07:47:26 50° 100° (E) 07:52:36 437.490
NOAA 15 01 May 07:47:06 07:52:27 75° 105° (ESE) 07:57:47 137.62
Cosmos 2504 01 May 07:52:25 07:59:43 57° 72° (ENE) 08:07:29 435.465 / 435.565
Cosmos 2491 01 May 07:52:54 08:01:39 71° 95° (E) 08:10:28 435.465 / 435.565
RS-15 01 May 07:59:07 08:11:05 65° 238° (WSW) 08:23:11 29.354- 29.394
HORYU 2 01 May 08:07:44 08:10:46 18° 305° (NW) 08:13:46 437.375
SO-50 01 May 08:22:24 08:26:40 30° 120° (ESE) 08:30:58 436.795
CINEMA 3 01 May 08:23:39 08:26:02 14° 84° (E) 08:28:23 145.822/145.860
NOAA 18 01 May 08:35:47 08:41:10 59° 294° (WNW) 08:46:31 137.9125
CUTE-I 01 May 08:38:27 08:43:44 66° 291° (WNW) 08:48:59 437.470
M-CUBED/EXP-1 PRIME 01 May 08:44:51 08:48:58 52° 106° (ESE) 08:52:42 437.505
CANX-2 01 May 08:51:14 08:54:37 23° 92° (E) 08:57:59 2200.000
AO-7 01 May 08:52:18 08:57:58 21° 328° (NNW) 09:03:39 29.400- 29.500
GONETS M04 01 May 08:55:38 08:57:20 11° 24° (NNE) 08:59:01
UNISAT 6 01 May 08:56:56 08:58:43 12° 51° (NE) 09:00:30 437.425
GOMX 1 01 May 08:57:17 09:02:49 74° 288° (WNW) 09:08:11 467.674
STRAND 1 01 May 08:58:31 09:02:35 24° 269° (W) 09:06:41 437.568
PRISM 01 May 08:59:20 09:03:23 65° 257° (WSW) 09:07:30 437.425
AAUSAT CUBESAT 2 01 May 09:00:06 09:01:42 12° 86° (E) 09:03:16 437.432
YUBILEINY 01 May 09:01:05 09:07:47 26° 284° (WNW) 09:14:30 435.215
DOVE 4 01 May 09:02:32 09:07:50 74° 102° (ESE) 09:12:52 437.250
LilacSat-2 01 May 09:03:46 09:07:02 27° 296° (WNW) 09:10:16 437.200
AUBIESAT-1 01 May 09:05:09 09:09:17 70° 110° (ESE) 09:13:02 437.475
TIGRISAT 01 May 09:14:00 09:16:42 16° 54° (NE) 09:19:23 435.000
BRITE-PL 01 May 09:14:32 09:19:40 37° 298° (WNW) 09:24:50 437.365/2234.400
UWE-3 01 May 09:20:13 09:21:20 11° 83° (E) 09:22:27 435.000/436.395/437.385
CUBEBUG 2 01 May 09:22:37 09:25:22 16° 87° (E) 09:28:05 437.445
Cubesat XI-IV 01 May 09:22:39 09:27:23 34° 300° (WNW) 09:32:06 437.490
HO-68 01 May 09:23:21 09:30:12 46° 98° (E) 09:37:00 435.675
CUTE 1.7 + AOD 2 01 May 09:24:01 09:28:01 40° 97° (E) 09:32:00 437.475
NOAA 15 01 May 09:27:35 09:31:46 24° 305° (NW) 09:35:56 137.62
ANTELSAT 01 May 09:36:56 09:40:34 23° 60° (ENE) 09:44:11 437.575/2403.000
Cosmos 2504 01 May 09:46:10 09:52:53 38° 274° (W) 09:59:59 435.465 / 435.565
Cosmos 2491 01 May 09:51:16 09:59:17 37° 299° (WNW) 10:07:21 435.465 / 435.565
ZACube-1 01 May 09:53:43 09:56:22 16° 88° (E) 09:58:58 437.345
SEEDS 01 May 09:54:27 09:58:37 59° 101° (ESE) 10:02:45 437.485
QB50P2 01 May 09:57:00 09:57:19 10° 49° (NE) 09:57:37 145.880/145.840
POLYITAN 1 01 May 09:58:52 09:59:26 10° 50° (NE) 10:00:00 437.675
CINEMA 3 01 May 09:59:11 10:04:01 85° 105° (ESE) 10:08:34 145.822/145.860
COMPASS 1 01 May 10:01:07 10:05:11 51° 100° (E) 10:09:15 437.405
POPSAT HIP 1 01 May 10:01:36 10:02:29 11° 50° (NE) 10:03:23 437.405
SO-50 01 May 10:02:03 10:06:57 64° 320° (NW) 10:11:50 436.795
QB50P1 01 May 10:04:31 10:05:51 11° 51° (NE) 10:07:11 145.935-145.965
ISS 01 May 10:11:58 10:14:58 34° 157° (SSE) 10:18:00 145.825
Cosmos 2499 01 May 10:12:35 10:14:34 11° 37° (NE) 10:16:34 435.465 / 435.565
RS-15 01 May 10:13:01 10:21:09 21° 264° (W) 10:29:20 29.354- 29.394
NOAA 18 01 May 10:17:52 10:20:49 15° 315° (NW) 10:23:46 137.9125
CUTE-I 01 May 10:19:51 10:22:53 16° 312° (NW) 10:25:55 437.470
M-CUBED/EXP-1 PRIME 01 May 10:19:51 10:23:14 24° 308° (NW) 10:26:24 437.505
CANX-2 01 May 10:26:40 10:30:44 48° 291° (WNW) 10:34:49 2200.000
DELFI C3 01 May 10:26:59 10:29:52 19° 91° (E) 10:32:44 145.870
UNISAT 6 01 May 10:30:01 10:34:36 60° 70° (ENE) 10:39:07 437.425
AAUSAT CUBESAT 2 01 May 10:33:41 10:37:51 88° 99° (E) 10:42:00 437.432
GOMX 1 01 May 10:36:28 10:40:02 18° 308° (NW) 10:43:34 467.674
NANOSAT C BR1 01 May 10:38:13 10:41:18 20° 58° (ENE) 10:44:24 145.865
Oscar 11 01 May 10:38:25 10:42:35 45° 98° (E) 10:46:43 145.826/435.025
AUBIESAT-1 01 May 10:40:22 10:43:18 19° 310° (NW) 10:46:05 437.475
DOVE 4 01 May 10:40:55 10:45:00 23° 303° (WNW) 10:48:59 437.250
AO-7 01 May 10:44:54 10:47:43 12° 355° (N) 10:50:32 29.400- 29.500
BUGSAT 1 01 May 10:46:20 10:48:25 13° 53° (NE) 10:50:29 437.445
FUNcube-1 01 May 10:47:37 10:51:43 45° 98° (E) 10:55:44 145.935
TIGRISAT 01 May 10:48:06 10:52:45 82° 75° (ENE) 10:57:20 435.000
GONETS M04 01 May 10:50:38 10:58:09 30° 56° (NE) 11:05:35
UWE-3 01 May 10:54:16 10:58:39 78° 105° (ESE) 11:02:52 435.000/436.395/437.385
CUBEBUG 2 01 May 10:58:10 11:02:36 73° 287° (WNW) 11:06:51 437.445
CUTE 1.7 + AOD 2 01 May 11:00:08 11:03:46 28° 296° (WNW) 11:07:23 437.475
HO-68 01 May 11:11:12 11:18:03 51° 300° (WNW) 11:24:53 435.675
HUMSAT D 01 May 11:11:25 11:14:51 25° 93° (E) 11:18:14 437.325/437.525
ANTELSAT 01 May 11:12:23 11:16:59 61° 259° (W) 11:21:31 437.575/2403.000
AIST 1 01 May 11:23:04 11:26:49 26° 66° (ENE) 11:30:32
QB50P2 01 May 11:28:02 11:32:13 53° 69° (ENE) 11:36:25 145.880/145.840
ZACube-1 01 May 11:28:56 11:33:12 71° 288° (WNW) 11:37:22 437.345
DUCHIFAT 1 01 May 11:30:07 11:34:14 49° 69° (ENE) 11:38:23 145.980
POLYITAN 1 01 May 11:30:09 11:34:21 54° 69° (ENE) 11:38:34 437.675
SEEDS 01 May 11:30:53 11:33:59 21° 300° (WNW) 11:37:05 437.485
POPSAT HIP 1 01 May 11:33:12 11:37:25 56° 70° (ENE) 11:41:39 437.405
QB50P1 01 May 11:36:35 11:40:49 61° 70° (ENE) 11:45:04 145.935-145.965
COMPASS 1 01 May 11:37:15 11:40:31 23° 299° (WNW) 11:43:45 437.405
CINEMA 3 01 May 11:37:18 11:40:31 18° 305° (NW) 11:43:39 145.822/145.860
SO-50 01 May 11:44:09 11:48:17 26° 342° (NNW) 11:52:23 436.795
VELOX 1 01 May 11:45:06 11:45:36 10° 83° (E) 11:46:07 145.980
JAS-2 01 May 11:47:43 11:52:42 25° 49° (NE) 11:58:10 435.910
ISS 01 May 11:47:56 11:51:12 66° 176° (S) 11:54:27 145.825
Cosmos 2491 01 May 11:56:01 11:59:37 13° 329° (NNW) 12:03:13 435.465 / 435.565
DELFI C3 01 May 12:01:11 12:05:04 53° 290° (WNW) 12:08:58 145.870
Cosmos 2499 01 May 12:03:26 12:10:20 38° 65° (ENE) 12:17:42 435.465 / 435.565
UNISAT 6 01 May 12:08:08 12:11:41 21° 269° (W) 12:15:14 437.425
AAUSAT CUBESAT 2 01 May 12:10:26 12:12:47 15° 304° (NW) 12:15:09 437.432
NANOSAT C BR1 01 May 12:12:23 12:16:39 66° 257° (WSW) 12:20:56 145.865
50 SAT 01 May 12:12:39 12:15:11 18° 91° (E) 12:17:43 437.505
AISAT 01 May 12:14:39 12:18:00 20° 90° (E) 12:21:19 437.250
Oscar 11 01 May 12:14:55 12:18:33 27° 298° (WNW) 12:22:10 145.826/435.025
BUGSAT 1 01 May 12:18:52 12:23:06 76° 73° (ENE) 12:27:23 437.445
Gurwin Techsat 1B 01 May 12:20:09 12:22:10 12° 45° (NE) 12:24:11 435.225
FUNcube-1 01 May 12:24:17 12:27:47 25° 299° (WNW) 12:31:14 145.935
ESTCUBE 1 01 May 12:26:03 12:30:08 32° 95° (E) 12:34:11 437.505/2401.250
TIGRISAT 01 May 12:27:09 12:30:01 16° 272° (W) 12:32:52 435.000
SPROUT 01 May 12:29:34 12:30:58 11° 84° (E) 12:32:22 437.525
UWE-3 01 May 12:31:44 12:34:35 17° 304° (NW) 12:37:22 435.000/436.395/437.385
AO-7 01 May 12:32:45 12:37:11 16° 22° (NNE) 12:41:39 29.400- 29.500
Oscar 19 01 May 12:35:49 12:40:06 27° 58° (ENE) 12:44:25 437.125/150
CUBEBUG 2 01 May 12:36:21 12:38:27 13° 308° (NW) 12:40:29 437.445
HUMSAT D 01 May 12:46:47 12:50:40 42° 292° (WNW) 12:54:30 437.325/437.525
GONETS M04 01 May 12:47:22 12:56:13 87° 260° (W) 13:04:56
CUBEBUG 1 01 May 12:55:33 12:59:49 43° 98° (E) 13:04:03 437.445
HO-68 01 May 13:00:01 13:04:17 17° 323° (NW) 13:08:32 435.675
AIST 1 01 May 13:00:24 13:04:37 44° 267° (W) 13:08:49
QB50P2 01 May 13:05:00 13:08:20 22° 269° (W) 13:11:41 145.880/145.840
DUCHIFAT 1 01 May 13:06:47 13:10:12 23° 268° (W) 13:13:39 145.980
ZACube-1 01 May 13:06:58 13:08:44 12° 308° (NW) 13:10:29 437.345
POLYITAN 1 01 May 13:07:10 13:10:29 21° 269° (W) 13:13:49 437.675
POPSAT HIP 1 01 May 13:10:18 13:13:33 21° 269° (W) 13:16:48 437.405
QB50P1 01 May 13:13:55 13:17:00 19° 270° (W) 13:20:06 145.935-145.965
VELOX 1 01 May 13:18:29 13:22:58 68° 103° (ESE) 13:27:25 145.980
DX 1 01 May 13:21:00 13:25:24 65° 103° (ESE) 13:29:46 434.975-435.025
ISS 01 May 13:24:20 13:27:30 48° 196° (SSW) 13:30:40 145.825
SO-50 01 May 13:26:24 13:30:13 22° 7° (N) 13:33:58 436.795
UKube-1 01 May 13:30:29 13:34:50 67° 104° (ESE) 13:39:09 .
JAS-2 01 May 13:30:42 13:36:50 87° 71° (ENE) 13:43:52 435.910
AO-85 01 May 13:43:16 13:47:55 29° 117° (ESE) 13:52:30 145.980
50 SAT 01 May 13:45:44 13:49:17 49° 290° (WNW) 13:52:49 437.505
AISAT 01 May 13:50:26 13:54:53 62° 290° (WNW) 13:59:18 437.250
ITAMSAT 1 01 May 13:51:04 13:55:12 25° 56° (NE) 13:59:21 435.822/435.867
Gurwin Techsat 1B 01 May 13:55:53 14:00:59 49° 65° (ENE) 14:06:07 435.225
BUGSAT 1 01 May 13:56:28 13:59:01 15° 272° (W) 14:01:35 437.445
Cosmos 2499 01 May 13:56:29 14:03:53 62° 267° (W) 14:11:49 435.465 / 435.565
ESTCUBE 1 01 May 14:02:48 14:07:02 39° 294° (WNW) 14:11:15 437.505/2401.250
SPROUT 01 May 14:03:21 14:07:42 79° 105° (ESE) 14:12:00 437.525
Oscar 19 01 May 14:13:58 14:19:06 63° 258° (WSW) 14:24:17 437.125/150
AO-7 01 May 14:20:25 14:27:42 36° 48° (NE) 14:35:02 29.400- 29.500
CUBEBUG 1 01 May 14:32:08 14:35:59 29° 298° (WNW) 14:39:50 437.445
BEESAT 01 May 14:35:22 14:38:05 15° 87° (E) 14:40:47 436.000
TISAT 1 01 May 14:43:12 14:47:28 66° 103° (ESE) 14:51:40 437.305
GONETS M04 01 May 14:45:15 14:51:50 25° 285° (WNW) 14:58:23
VELOX 1 01 May 14:55:43 14:59:01 21° 303° (WNW) 15:02:19 145.980
DX 1 01 May 14:57:55 15:01:13 21° 302° (WNW) 15:04:31 434.975-435.025
ISS 01 May 15:01:18 15:03:27 16° 215° (SW) 15:05:36 145.825
UKube-1 01 May 15:07:18 15:10:30 20° 303° (WNW) 15:13:41 .
SO-50 01 May 15:07:20 15:11:54 39° 31° (NNE) 15:16:20 436.795
O/OREOS (USA 219) 01 May 15:13:04 15:16:07 18° 101° (E) 15:19:11 437.305
JAS-2 01 May 15:18:17 15:22:58 22° 277° (W) 15:28:05 435.910
AO-85 01 May 15:22:40 15:28:08 73° 317° (NW) 15:33:27 145.980
ITUPSAT 1 01 May 15:28:14 15:32:43 39° 97° (E) 15:37:11 437.325
AISAT 01 May 15:28:47 15:30:32 12° 310° (NW) 15:32:17 437.250
ITAMSAT 1 01 May 15:29:06 15:34:16 69° 257° (WSW) 15:39:28 435.822/435.867
Gurwin Techsat 1B 01 May 15:36:24 15:41:09 32° 266° (W) 15:45:56 435.225
SWISSCUBE 01 May 15:38:24 15:43:05 52° 101° (E) 15:47:44 437.505
SPROUT 01 May 15:40:19 15:43:09 17° 304° (NW) 15:45:58 437.525
CUSAT 1 01 May 15:50:11 15:53:31 32° 89° (E) 15:57:47 437.405
Cosmos 2499 01 May 15:51:42 15:55:32 15° 288° (WNW) 15:59:29 435.465 / 435.565
Oscar 19 01 May 15:58:05 15:59:31 11° 278° (W) 16:00:56 437.125/150
HORYU 2 01 May 15:58:40 16:02:19 25° 60° (ENE) 16:05:57 437.375
Cosmos 2491 01 May 15:59:11 16:04:33 17° 40° (NE) 16:09:52 435.465 / 435.565
NOAA 15 01 May 16:00:00 16:00:46 10° 41° (NE) 16:01:30 137.62
PCSat 01 May 16:01:49 16:05:24 18° 107° (ESE) 16:09:00 145.827
AO-7 01 May 16:11:37 16:19:55 79° 251° (WSW) 16:28:17 29.400- 29.500
BEESAT 01 May 16:11:47 16:16:35 90° 109° (ESE) 16:21:22 436.000
TISAT 1 01 May 16:19:39 16:22:42 19° 302° (WNW) 16:25:44 437.305
DANDE 01 May 16:20:34 16:23:02 22° 87° (E) 16:25:59 436.750
SO-50 01 May 16:47:56 16:52:37 56° 233° (SW) 16:57:10 436.795
NOAA 18 01 May 16:49:20 16:53:23 21° 52° (NE) 16:57:24 137.9125
CUTE-I 01 May 16:49:38 16:52:48 16° 49° (NE) 16:55:58 437.470
O/OREOS (USA 219) 01 May 16:50:22 16:54:59 77° 300° (WNW) 16:59:36 437.305
MOZHAYETS 4 01 May 16:55:36 16:59:37 30° 94° (E) 17:03:38
GOMX 1 01 May 17:00:46 17:01:34 10° 43° (NE) 17:02:22 467.674
KKS-1 01 May 17:02:46 17:07:08 47° 100° (E) 17:11:26 437.445
AO-85 01 May 17:04:43 17:09:27 29° 339° (NNW) 17:13:58 145.980
ITUPSAT 1 01 May 17:06:12 17:10:33 35° 297° (WNW) 17:14:53 437.325
ITAMSAT 1 01 May 17:12:40 17:14:44 12° 276° (W) 17:16:49 435.822/435.867
BRITE-PL 01 May 17:16:13 17:19:50 20° 53° (NE) 17:23:37 437.365/2234.400
SWISSCUBE 01 May 17:16:38 17:20:39 28° 300° (WNW) 17:24:40 437.505
STARS 01 May 17:23:21 17:27:34 41° 98° (E) 17:31:44 437.465
Cubesat XI-IV 01 May 17:31:44 17:36:16 29° 58° (ENE) 17:40:47 437.490
CUSAT 1 01 May 17:32:12 17:35:41 31° 299° (WNW) 17:40:07 437.405
HORYU 2 01 May 17:34:14 17:38:37 53° 259° (W) 17:43:01 437.375
NOAA 15 01 May 17:34:21 17:39:15 41° 63° (ENE) 17:44:11 137.62
PCSat 01 May 17:42:37 17:48:02 84° 129° (SE) 17:53:32 145.827
